TimeCST,TemperatureF,Dew PointF,Humidity,Sea Level PressureIn,VisibilityMPH,Wind Direction,Wind SpeedMPH,Gust SpeedMPH,PrecipitationIn,Events,Conditions,WindDirDegrees,DateUTC
12:54 AM,17.1,10.0,74,30.39,10.0,ESE,9.2,-,N/A,,Overcast,120,2014-01-09 06:54:00
1:54 AM,16.0,10.0,77,30.38,10.0,SE,8.1,-,N/A,,Overcast,130,2014-01-09 07:54:00
2:54 AM,12.0,7.0,80,30.38,10.0,SSE,5.8,-,N/A,,Clear,150,2014-01-09 08:54:00
3:54 AM,10.0,6.1,84,30.36,10.0,SE,3.5,-,N/A,,Clear,130,2014-01-09 09:54:00
4:54 AM,9.0,5.0,84,30.35,10.0,SE,3.5,-,N/A,,Clear,130,2014-01-09 10:54:00
5:54 AM,8.1,1.9,76,30.32,9.0,ESE,3.5,-,N/A,,Clear,110,2014-01-09 11:54:00
6:54 AM,8.1,3.9,83,30.30,9.0,SE,3.5,-,N/A,,Overcast,140,2014-01-09 12:54:00
7:54 AM,5.0,1.0,84,30.29,9.0,Calm,Calm,-,N/A,,Clear,0,2014-01-09 13:54:00
8:54 AM,6.1,3.0,87,30.28,7.0,Calm,Calm,-,N/A,,Clear,0,2014-01-09 14:54:00
9:54 AM,14.0,9.0,80,30.27,8.0,South,9.2,-,N/A,,Clear,170,2014-01-09 15:54:00
10:54 AM,16.0,10.0,77,30.26,8.0,South,8.1,-,N/A,,Clear,170,2014-01-09 16:54:00
11:54 AM,19.9,12.9,74,30.20,8.0,South,9.2,-,N/A,,Clear,180,2014-01-09 17:54:00
12:54 PM,23.0,15.1,72,30.16,7.0,South,5.8,-,N/A,,Overcast,190,2014-01-09 18:54:00
1:54 PM,26.1,18.0,71,30.12,7.0,South,10.4,-,N/A,,Clear,170,2014-01-09 19:54:00
2:42 PM,27.0,19.9,75,30.04,7.0,South,10.4,-,N/A,,Mostly Cloudy,180,2014-01-09 20:42:00
2:52 PM,28.4,19.4,69,30.04,7.0,South,10.4,-,N/A,,Scattered Clouds,170,2014-01-09 20:52:00
2:54 PM,28.0,21.0,75,30.09,7.0,South,11.5,-,N/A,,Scattered Clouds,170,2014-01-09 20:54:00
3:54 PM,30.0,23.0,75,30.08,6.0,SSE,11.5,-,N/A,,Haze,160,2014-01-09 21:54:00
5:54 PM,27.0,23.0,85,30.06,6.0,South,10.4,-,N/A,,Overcast,170,2014-01-09 23:54:00
6:54 PM,28.0,24.1,85,30.07,5.0,South,13.8,-,N/A,,Overcast,190,2014-01-10 00:54:00
7:29 PM,28.0,25.0,88,30.00,6.0,SSW,16.1,-,N/A,,Overcast,200,2014-01-10 01:29:00
7:54 PM,28.9,25.0,85,30.05,5.0,South,12.7,-,N/A,,Overcast,190,2014-01-10 01:54:00
8:54 PM,28.9,26.1,89,30.03,5.0,South,6.9,-,N/A,,Overcast,170,2014-01-10 02:54:00
9:13 PM,28.9,25.0,85,29.96,5.0,South,8.1,-,N/A,,Overcast,170,2014-01-10 03:13:00
9:54 PM,28.9,25.0,85,30.00,5.0,SSE,10.4,-,N/A,,Overcast,160,2014-01-10 03:54:00
10:54 PM,28.9,25.0,85,29.98,5.0,South,9.2,-,N/A,,Overcast,170,2014-01-10 04:54:00
11:21 PM,28.9,25.0,85,29.92,5.0,SSE,10.4,-,N/A,,Overcast,160,2014-01-10 05:21:00
11:29 PM,28.0,25.0,88,29.92,5.0,SSE,11.5,-,N/A,,Overcast,160,2014-01-10 05:29:00
11:54 PM,28.0,24.1,85,29.97,5.0,South,10.4,-,N/A,,Overcast,170,2014-01-10 05:54:00